Location: Eschertshofen
(49.3064°N, 11.5756°E)
Time: 05:25:37
(UTC+00:00)

Cosmos 2026 Rocket - Pass Details

Date: 18 September 2020
Orbit: 940 x 1000 km, 82.9° (Epoch: 20 October)

Event Time Altitude Azimuth Distance (km) Brightness Sun altitude
Rises 19:55:47 0° 349° (N) 3,714 7.7 -24.7°
Reaches altitude 10° 19:58:18 10° 348° (NNW) 2,768 7.0 -25.0°
Maximum altitude 20:04:40 78° 264° (W) 1,026 4.1 -25.8°
Enters shadow 20:06:56 43° 187° (S) 1,379 4.5 -26.1°
